Wetbulb
65.49 62.45 58.89 57.68 49.58 48.55 44.34 45.62 48.72 49.08 49.80 52.76 53.24 52.41 52.97 54.58 56.22 53.33 69.51 71.69 70.26 71.71 75.05 76.59 76.87 76.97 76.78 76.50 76.60 76.54 76.49 76.57 76.76 76.81 76.69 76.69 76.71 76.62 76.24 75.96 75.37 74.47 73.47 72.30 70.66 69.35 68.52 68.06 67.30
63.91 60.25 58.11 53.57 46.06 42.42 43.84 47.10 47.26 49.67 51.74 53.55 53.71 53.07 52.33 52.80 56.52 59.11 65.12 71.03 71.03 73.22 76.30 75.81 76.95 76.75 76.68 76.32 75.95 75.92 76.04 76.24 76.17 76.29 76.26 76.36 76.04 75.89 75.51 75.04 74.25 73.28 72.37 70.58 69.79 69.13 68.39 68.12 67.70
62.75 61.74 55.79 51.92 45.84 40.55 43.61 46.44 48.88 50.73 52.53 51.66 52.40 54.66 54.45 54.54 61.55 63.43 69.90 70.10 70.95 72.79 75.45 76.31 76.77 76.62 76.55 76.22 75.65 75.54 75.64 75.62 75.67 75.82 75.72 75.54 75.37 74.94 74.64 74.22 73.87 72.58 71.02 70.56 69.82 69.36 69.12 68.85 68.66
60.49 60.62 54.58 47.41 43.47 44.06 45.27 49.38 50.20 50.37 52.00 53.05 53.66 53.24 56.85 68.34 68.53 70.48 71.20 69.47 70.94 72.56 73.42 76.00 76.42 76.50 76.30 76.35 75.77 75.54 75.54 75.37 75.39 75.39 75.27 75.17 74.89 74.36 74.02 73.80 73.22 72.59 71.72 70.59 70.23 70.59 70.18 69.38 69.02
60.65 57.45 48.08 45.62 44.03 45.96 47.96 50.29 51.10 50.16 51.26 53.45 55.15 54.32 56.83 66.37 67.57 69.91 69.94 69.14 70.27 71.97 73.26 75.88 76.26 76.32 76.12 76.30 76.02 75.62 75.54 75.14 75.26 75.26 75.21 74.84 74.54 73.96 73.60 73.33 72.80 72.69 72.45 71.70 71.18 70.91 71.02 70.87 69.72
56.16 55.58 46.97 44.05 44.59 47.46 50.40 52.51 52.26 52.04 53.06 55.49 55.91 56.08 59.04 64.05 68.31 68.32 69.21 69.21 70.82 71.48 72.86 74.95 76.45 76.26 75.97 75.72 75.72 75.31 75.11 75.03 75.21 75.11 75.01 74.93 74.29 73.72 73.38 73.05 72.88 72.89 72.57 71.89 71.50 71.30 71.27 71.17 70.88
53.96 51.60 46.65 47.18 46.19 48.24 51.22 55.31 53.92 53.85 54.78 55.07 57.60 54.69 58.91 61.75 68.01 67.69 67.98 69.37 71.12 71.72 72.32 74.60 75.44 76.41 76.14 75.61 75.31 75.28 75.02 74.85 74.82 74.67 74.57 74.45 74.23 73.52 73.20 72.81 72.90 72.83 72.45 71.87 71.50 71.59 71.47 71.23 70.71
55.12 53.93 47.77 48.36 46.15 47.23 53.63 54.41 55.75 54.42 53.92 57.90 57.87 54.07 55.14 61.34 67.74 68.15 68.21 69.06 70.01 70.85 71.49 73.39 74.18 75.30 75.37 75.54 75.40 75.31 75.11 74.88 74.55 74.75 74.58 74.41 74.15 73.64 73.07 72.05 72.23 72.68 72.41 72.04 71.72 71.64 71.49 71.37 70.95
54.72 48.25 45.46 47.33 48.07 49.62 54.33 52.05 55.03 56.44 54.53 55.66 56.89 56.99 57.63 63.34 67.60 67.68 66.93 67.30 68.11 69.41 71.44 72.77 73.74 74.70 74.86 74.22 74.95 75.22 75.40 75.03 74.78 74.88 74.72 73.95 73.80 73.68 72.96 71.52 71.71 72.61 72.53 72.11 72.09 71.96 71.76 71.64 70.61
49.15 45.50 46.25 50.94 52.03 51.79 53.59 52.91 52.48 52.42 52.43 52.37 54.77 56.79 57.49 57.56 65.69 66.25 66.21 65.61 66.16 67.09 69.93 71.80 73.36 73.73 74.25 73.82 74.85 74.97 74.47 74.83 75.02 74.88 75.01 74.78 74.64 74.37 72.96 72.35 71.76 72.36 72.45 72.21 72.16 72.05 72.12 71.10 69.37
46.56 44.37 48.25 49.92 51.56 51.97 51.91 50.86 52.34 49.86 49.04 52.87 51.24 53.84 55.38 56.02 59.63 60.75 66.89 67.04 66.51 67.12 68.24 70.27 72.61 73.69 73.43 72.90 74.06 74.28 74.34 74.45 74.38 74.33 74.31 74.43 73.57 73.29 73.43 72.40 72.01 71.37 71.56 69.59 70.27 70.06 69.37 69.38 69.62
42.78 44.91 45.49 48.37 47.53 47.18 48.22 47.72 47.45 49.08 50.10 52.08 52.79 53.27 54.60 56.00 57.85 59.85 59.97 66.95 66.73 66.73 67.24 69.57 71.10 72.54 73.29 72.68 72.85 73.07 72.63 73.84 72.85 72.57 73.09 73.07 71.57 72.04 72.62 71.93 71.56 71.75 70.55 70.16 69.73 68.79 69.51 69.76 69.45
42.93 43.65 45.48 46.49 46.38 46.63 47.28 46.27 47.07 46.71 49.58 51.06 52.52 54.10 54.98 56.10 57.93 59.97 63.32 66.62 68.55 66.43 67.29 68.30 70.31 71.00 71.59 71.56 71.29 72.14 72.14 72.62 72.43 72.41 73.26 72.94 71.50 71.72 71.99 71.86 71.44 70.93 70.56 69.68 69.07 68.50 68.74 68.50 68.63
44.27 44.23 44.90 45.61 46.04 46.26 45.14 46.23 46.31 48.27 50.56 50.04 51.12 52.14 53.69 54.66 55.71 57.77 62.15 65.47 67.39 68.79 68.22 68.85 68.99 70.69 70.93 70.64 71.27 71.18 71.84 71.84 71.74 71.73 72.17 72.57 71.89 71.76 71.06 70.87 70.61 70.13 70.04 69.37 68.71 68.36 67.77 67.62 67.59
44.08 41.37 43.17 43.70 44.31 44.00 45.85 43.16 43.79 47.97 49.52 49.29 51.09 51.98 52.75 53.81 55.11 56.12 58.39 62.06 65.82 68.74 70.30 70.01 70.04 70.55 70.84 69.17 70.33 70.37 69.82 70.13 70.27 70.42 71.54 70.87 71.15 70.84 70.93 69.67 69.22 69.32 69.50 69.43 68.56 68.60 68.28 67.15 67.08
40.92 39.94 38.30 42.75 42.98 43.85 44.25 39.00 44.91 46.42 46.99 47.11 48.18 49.63 50.73 52.14 53.52 55.44 56.36 58.70 63.63 67.64 69.80 70.79 68.95 69.26 69.19 69.76 69.46 68.57 68.15 68.83 69.26 69.22 69.39 70.04 69.41 68.96 69.09 67.97 67.88 68.32 68.36 67.53 66.83 67.13 66.51 66.35 66.28
39.62 36.65 36.67 39.33 43.56 43.64 42.62 40.18 45.21 46.70 46.08 46.38 47.52 48.73 49.75 51.35 53.51 56.77 56.47 57.85 59.62 64.83 69.27 71.26 71.70 69.54 68.97 68.80 69.39 68.84 67.68 66.99 68.47 68.55 68.54 68.69 68.31 68.69 68.29 67.63 68.23 68.47 67.00 66.59 66.72 66.70 66.67 66.27 66.38
34.42 35.49 36.93 37.04 41.63 42.75 41.29 41.11 44.22 45.66 45.49 45.62 46.35 47.52 48.71 50.19 52.07 54.62 55.87 57.18 58.66 61.14 65.51 69.60 72.59 72.30 70.56 69.99 68.93 68.20 68.61 67.47 67.66 67.90 68.39 68.46 68.17 67.86 67.26 67.76 67.66 67.70 65.95 66.81 66.84 67.16 67.55 67.21 66.94
38.75 37.24 36.10 39.24 42.40 41.05 40.51 40.76 42.64 45.20 45.67 45.76 46.50 47.52 48.43 49.36 52.13 53.86 55.19 56.44 57.34 59.39 60.69 63.76 67.97 71.89 71.97 70.60 69.24 68.66 66.50 69.01 70.05 69.81 70.08 69.65 67.68 67.68 67.77 68.29 67.51 67.41 67.32 67.67 68.16 67.84 67.63 67.30 67.57
38.60 36.64 36.50 39.64 42.07 40.77 39.79 39.05 42.53 43.91 44.97 46.33 47.21 47.49 48.12 48.72 49.93 51.83 53.62 55.93 57.42 57.75 59.31 60.24 62.80 66.69 69.58 70.21 70.97 71.11 70.12 70.92 70.98 70.95 70.89 70.45 68.90 69.49 70.11 70.70 69.78 69.21 68.17 68.36 68.51 68.28 67.53 67.54 67.87
38.38 36.64 36.41 35.85 39.59 41.36 39.18 37.49 39.21 43.01 45.40 46.28 47.49 48.46 48.70 48.63 49.48 50.50 52.46 55.42 56.77 57.14 58.48 58.92 60.34 61.87 65.63 68.99 71.16 71.41 71.40 71.07 70.71 71.25 71.54 71.75 70.82 71.38 71.84 71.55 71.08 69.98 69.45 69.00 68.99 68.92 68.62 67.74 67.15
35.20 40.24 38.86 37.61 36.07 32.14 38.86 30.75 37.93 40.82 41.88 44.13 45.88 47.56 48.33 49.31 50.49 50.73 53.27 54.58 55.11 56.08 57.18 58.64 59.81 60.47 61.56 65.67 67.94 70.37 69.55 69.06 70.86 71.82 72.54 72.44 71.77 72.01 72.11 72.43 71.34 70.80 70.33 70.75 69.86 69.04 69.18 68.80 67.13
37.07 40.71 39.34 38.31 36.30 34.80 35.43 32.47 36.78 40.30 39.25 41.84 44.58 46.01 47.70 49.10 49.72 51.36 52.58 53.20 54.13 55.57 56.24 57.89 59.18 60.20 62.24 62.70 65.44 66.91 68.94 69.41 71.17 71.38 73.62 74.22 73.02 72.86 72.63 72.82 71.95 71.49 70.97 70.58 70.27 68.99 69.07 68.89 68.07
41.40 39.17 38.71 36.33 35.08 29.49 33.28 32.96 34.91 37.58 39.48 41.75 44.94 46.48 47.57 49.12 51.21 52.21 52.87 53.31 53.59 54.77 55.80 56.91 58.31 60.17 61.15 61.27 63.22 64.65 67.63 69.47 68.82 69.87 69.07 70.07 71.30 72.22 73.14 72.87 72.34 72.23 71.07 70.63 70.46 70.06 69.89 69.30 68.82
39.58 36.55 30.09 28.59 28.92 28.35 34.96 32.45 35.86 40.34 42.58 43.66 44.60 46.62 48.50 49.69 50.83 51.20 51.43 51.77 53.05 54.06 55.39 56.04 56.96 58.44 59.98 60.26 61.40 63.39 65.54 67.47 68.50 69.07 68.26 69.58 68.92 69.51 71.17 71.96 71.93 71.50 72.06 72.08 71.44 70.05 69.83 69.54 68.95
37.68 36.45 30.18 21.86 25.40 29.27 35.32 29.67 37.02 42.10 44.22 45.69 47.16 48.75 49.70 50.54 50.48 50.65 51.37 51.61 52.23 53.47 54.72 55.99 56.45 57.16 58.06 58.68 60.42 63.23 65.05 65.52 67.02 68.38 67.88 68.31 68.54 69.54 71.86 70.83 71.62 71.84 71.50 71.16 70.71 69.86 69.88 70.46 69.55
35.94 33.24 37.67 32.25 33.34 28.44 32.59 36.26 40.20 42.88 43.31 44.77 45.34 46.85 48.23 49.89 49.86 50.40 51.12 51.58 52.07 53.34 54.56 55.51 56.06 56.97 57.95 57.74 60.38 62.25 64.14 66.27 67.95 70.65 71.21 69.43 70.81 69.22 70.10 70.75 71.18 71.27 71.30 71.40 71.26 70.31 70.51 70.51 70.35
39.43 40.79 32.11 33.80 23.96 22.91 30.58 32.28 33.53 38.71 40.81 43.13 44.07 45.87 47.68 48.80 49.53 50.81 51.09 51.43 52.52 53.37 54.45 55.67 56.21 56.18 57.19 57.94 59.91 61.90 63.64 65.43 67.13 69.03 68.88 69.77 69.16 69.10 69.66 70.43 71.21 71.36 71.51 71.92 71.63 71.09 71.27 70.73 70.12
35.99 35.10 35.24 34.24 32.40 25.93 25.10 31.27 40.80 40.61 41.80 42.42 44.16 46.01 47.26 48.13 48.96 49.42 50.06 51.38 52.46 53.47 53.87 55.13 55.51 56.23 56.31 57.85 60.14 62.04 62.95 64.87 65.50 66.15 67.03 68.07 68.96 69.00 69.19 70.04 70.78 71.07 71.74 71.74 71.52 71.16 70.73 69.92 68.64
39.74 36.94 36.65 29.97 28.67 31.60 30.70 30.41 42.95 43.04 43.74 44.04 44.52 45.85 47.27 48.43 48.88 49.37 50.08 51.16 52.38 52.28 53.53 54.59 55.33 55.55 56.36 58.57 60.13 62.29 63.55 64.54 64.42 65.03 66.20 67.66 68.24 69.06 69.26 70.06 70.41 71.36 71.54 71.74 70.86 70.34 69.61 68.20 67.54
MSLP
1011.01 1010.67 1011.11 1010.34 1010.54 1009.89 1009.02 1008.79 1008.61 1007.71 1007.05 1006.64 1006.29 1006.12 1005.52 1004.84 1004.06 1003.60 1003.98 1004.50 1005.22 1005.43 1006.77 1007.92 1008.67 1009.00 1009.31 1009.64 1009.88 1010.34 1010.71 1011.08 1011.36 1011.77 1012.07 1012.50 1012.69 1012.96 1013.36 1013.80 1014.16 1014.34 1014.62 1014.88 1015.16 1015.34 1015.50 1015.55 1015.81
1010.90 1010.69 1010.91 1010.54 1010.15 1009.35 1008.88 1008.65 1008.09 1007.55 1007.03 1006.72 1006.07 1005.79 1005.60 1004.29 1004.31 1003.35 1003.63 1004.70 1005.11 1005.54 1006.41 1007.68 1008.56 1009.13 1009.26 1009.50 1009.77 1010.19 1010.57 1011.06 1011.47 1011.85 1012.05 1012.41 1012.98 1013.29 1013.62 1013.92 1014.22 1014.42 1014.64 1014.76 1015.10 1015.30 1015.56 1015.74 1015.94
1010.85 1010.58 1010.85 1010.43 1009.98 1009.39 1008.77 1008.36 1007.98 1007.66 1007.34 1006.90 1006.36 1005.84 1005.30 1004.50 1004.23 1003.74 1004.21 1004.50 1005.01 1005.75 1006.32 1007.39 1008.52 1009.23 1009.41 1009.55 1009.68 1010.03 1010.27 1010.76 1011.27 1011.79 1012.17 1012.62 1012.79 1013.36 1013.56 1013.88 1014.15 1014.43 1014.58 1014.66 1014.73 1014.94 1015.21 1015.54 1015.91
1010.52 1010.63 1011.44 1010.77 1009.77 1009.83 1009.13 1008.40 1008.10 1007.71 1007.05 1006.85 1006.43 1005.76 1005.25 1005.63 1005.21 1004.90 1004.82 1005.05 1004.96 1005.86 1006.36 1007.48 1008.59 1009.32 1009.78 1009.88 1009.78 1009.96 1010.27 1010.67 1011.04 1011.50 1011.89 1012.41 1012.93 1013.33 1013.74 1014.02 1014.24 1014.43 1014.58 1014.77 1014.87 1015.14 1015.30 1015.50 1015.71
1010.53 1010.57 1010.33 1010.21 1009.83 1009.78 1009.11 1008.48 1008.07 1007.35 1007.25 1006.46 1006.41 1005.68 1005.44 1005.21 1005.14 1004.89 1004.43 1004.86 1004.80 1005.89 1006.62 1007.52 1008.45 1009.27 1009.84 1010.25 1010.27 1010.26 1010.32 1010.58 1010.95 1011.43 1011.84 1012.26 1012.71 1013.19 1013.64 1014.00 1014.19 1014.44 1014.65 1015.01 1015.13 1015.33 1015.37 1015.50 1015.66
1010.33 1010.41 1010.00 1009.53 1009.63 1009.30 1008.65 1008.17 1007.97 1007.45 1006.99 1006.51 1006.13 1005.94 1005.42 1005.50 1004.97 1004.99 1004.74 1004.79 1005.21 1005.14 1006.33 1007.24 1008.20 1008.93 1009.53 1010.05 1010.33 1010.57 1010.61 1010.65 1010.96 1011.36 1011.75 1012.17 1012.54 1012.98 1013.41 1013.82 1014.09 1014.32 1014.56 1014.70 1014.97 1015.26 1015.51 1015.61 1015.78
1009.70 1009.88 1009.26 1009.23 1009.19 1008.65 1008.13 1008.04 1007.80 1007.28 1006.81 1006.37 1006.36 1005.82 1005.53 1005.38 1005.77 1005.57 1005.34 1005.44 1005.66 1005.80 1006.25 1007.21 1008.03 1008.81 1009.50 1009.92 1010.39 1010.65 1011.02 1010.94 1011.10 1011.52 1011.75 1012.00 1012.42 1012.80 1013.34 1013.76 1014.13 1014.23 1014.43 1014.53 1014.73 1015.07 1015.44 1015.75 1015.89
1009.58 1009.71 1008.99 1008.97 1008.60 1007.91 1007.88 1007.76 1007.66 1007.20 1006.72 1006.71 1006.44 1006.04 1005.92 1005.91 1006.24 1005.98 1006.10 1006.19 1006.23 1006.36 1006.35 1007.11 1007.67 1008.47 1009.11 1009.67 1010.29 1010.61 1011.13 1011.27 1011.38 1011.71 1012.07 1012.18 1012.60 1013.00 1013.45 1013.84 1014.20 1014.29 1014.53 1014.60 1014.60 1014.98 1015.03 1015.43 1015.79
1010.12 1009.45 1008.45 1008.38 1008.29 1007.68 1007.67 1007.62 1007.48 1007.20 1007.09 1006.86 1006.56 1006.58 1006.59 1006.28 1006.54 1006.22 1006.17 1006.35 1006.63 1006.84 1006.76 1007.07 1007.59 1008.17 1008.69 1009.22 1009.92 1010.58 1011.11 1011.44 1011.66 1011.98 1012.49 1012.77 1012.81 1013.06 1013.45 1013.79 1014.12 1014.32 1014.47 1014.69 1014.78 1015.14 1015.09 1015.26 1015.60
1010.00 1008.94 1008.40 1008.34 1007.78 1007.19 1007.30 1007.49 1007.57 1007.44 1007.09 1006.71 1006.46 1006.51 1006.44 1006.19 1006.15 1006.17 1006.04 1005.96 1006.26 1006.61 1006.73 1007.10 1007.45 1007.99 1008.53 1009.04 1009.59 1010.02 1010.59 1011.02 1011.57 1011.87 1012.29 1012.63 1012.86 1013.04 1013.14 1013.50 1014.16 1014.36 1014.59 1014.82 1014.86 1015.14 1015.18 1015.35 1014.99
1009.98 1009.36 1008.92 1008.27 1008.00 1007.78 1007.17 1007.50 1007.51 1007.53 1006.89 1006.67 1006.47 1006.19 1005.85 1005.81 1005.91 1005.84 1005.55 1005.54 1005.70 1006.41 1006.70 1007.19 1007.58 1007.87 1008.29 1008.60 1009.22 1009.80 1010.16 1010.58 1011.17 1011.74 1012.06 1012.45 1012.92 1013.16 1013.10 1013.19 1013.47 1013.78 1014.26 1014.29 1014.47 1014.80 1014.83 1014.63 1014.66
1009.97 1009.97 1009.80 1008.72 1008.33 1008.09 1007.73 1007.95 1007.58 1007.62 1007.16 1007.05 1006.59 1006.54 1006.07 1005.66 1005.36 1005.58 1005.60 1005.25 1005.57 1006.19 1006.22 1007.03 1007.51 1007.90 1008.18 1008.45 1009.06 1009.43 1009.82 1010.13 1010.51 1011.08 1011.72 1011.84 1012.57 1012.83 1012.53 1012.63 1012.96 1013.30 1013.37 1013.58 1014.01 1014.06 1014.25 1014.48 1014.44
1010.09 1010.08 1009.96 1009.61 1008.72 1008.41 1008.30 1007.64 1007.34 1007.34 1007.39 1006.90 1006.51 1006.20 1005.80 1005.48 1005.28 1005.35 1005.55 1005.26 1005.57 1005.49 1005.76 1006.31 1007.29 1007.75 1008.16 1008.66 1008.95 1009.13 1009.36 1009.72 1009.78 1010.25 1010.94 1011.10 1011.48 1012.01 1012.12 1012.16 1012.26 1012.61 1012.90 1013.26 1013.54 1013.68 1013.93 1014.13 1014.17
1010.58 1010.39 1010.10 1009.77 1009.02 1008.55 1008.30 1007.51 1008.00 1007.05 1006.85 1006.54 1006.39 1005.81 1005.40 1005.13 1004.99 1005.15 1005.40 1005.45 1005.80 1005.27 1005.43 1005.44 1006.59 1007.58 1007.68 1008.09 1008.67 1008.99 1008.98 1008.99 1009.68 1009.62 1010.07 1010.52 1010.74 1011.27 1011.39 1011.89 1012.11 1012.25 1012.57 1012.78 1013.22 1013.32 1013.59 1013.80 1013.69
1010.91 1010.49 1010.05 1009.69 1009.25 1008.66 1008.49 1007.66 1007.46 1007.51 1007.26 1006.55 1006.58 1005.83 1005.44 1005.05 1004.74 1004.73 1005.19 1005.44 1005.13 1005.09 1005.12 1005.30 1005.44 1006.25 1007.24 1007.38 1008.14 1008.71 1009.06 1009.16 1009.23 1009.16 1009.48 1010.17 1010.24 1010.58 1011.11 1011.37 1011.60 1011.95 1012.36 1012.61 1012.94 1013.13 1013.28 1013.41 1013.22
1010.98 1010.81 1009.99 1009.55 1009.19 1008.58 1008.80 1007.60 1007.84 1008.04 1007.64 1007.04 1006.60 1006.36 1005.58 1005.16 1005.16 1004.72 1004.80 1004.89 1004.57 1004.56 1004.39 1005.25 1005.15 1005.57 1006.05 1006.81 1007.39 1007.96 1008.55 1008.78 1008.86 1009.18 1009.28 1009.39 1009.86 1010.08 1010.28 1011.13 1011.31 1011.83 1012.49 1012.23 1012.33 1012.53 1012.81 1012.98 1012.68
1011.04 1010.43 1010.37 1009.73 1009.56 1009.00 1009.25 1008.56 1008.11 1008.47 1008.16 1007.45 1006.88 1006.68 1005.79 1005.28 1005.18 1004.95 1004.83 1004.72 1004.67 1004.59 1004.26 1004.20 1004.79 1005.13 1005.40 1006.24 1006.56 1007.27 1007.76 1007.95 1008.26 1008.36 1008.53 1009.30 1009.71 1010.02 1009.22 1010.02 1010.33 1010.52 1011.88 1012.06 1011.91 1012.01 1012.34 1012.32 1012.35
1010.79 1010.71 1010.60 1010.15 1009.83 1009.28 1008.96 1008.76 1008.55 1008.20 1008.14 1007.69 1006.96 1006.55 1006.32 1005.60 1005.07 1004.99 1005.04 1004.95 1004.98 1004.67 1004.49 1004.31 1004.46 1004.88 1005.00 1005.93 1006.65 1006.90 1007.50 1007.54 1007.72 1007.85 1007.42 1008.17 1009.11 1009.61 1010.00 1009.55 1009.46 1010.23 1011.17 1011.20 1011.49 1011.63 1011.91 1011.94 1011.81
1011.05 1010.88 1010.64 1010.49 1010.15 1009.75 1008.80 1008.41 1008.02 1007.66 1007.24 1006.81 1006.62 1006.41 1006.33 1005.92 1005.32 1004.83 1004.50 1004.46 1004.75 1004.75 1004.71 1004.62 1004.51 1004.84 1005.18 1005.79 1006.08 1006.00 1005.97 1006.37 1006.71 1007.10 1007.18 1007.55 1008.38 1008.43 1008.83 1009.54 1009.20 1009.88 1010.19 1010.51 1011.04 1011.09 1011.35 1011.38 1011.83
1011.09 1010.94 1010.81 1010.77 1010.59 1010.27 1008.87 1007.86 1007.48 1007.03 1006.44 1005.93 1005.72 1005.82 1005.80 1005.69 1005.32 1005.10 1004.83 1004.68 1004.20 1004.68 1004.70 1004.77 1004.68 1004.52 1004.63 1004.73 1004.80 1005.12 1005.42 1005.03 1005.39 1006.12 1006.40 1006.50 1007.21 1007.41 1008.01 1008.43 1007.96 1008.98 1009.52 1010.32 1010.30 1010.54 1010.62 1010.79 1011.20
1010.80 1010.78 1010.79 1010.88 1010.73 1010.15 1009.40 1007.31 1006.79 1006.10 1006.10 1005.86 1005.57 1005.49 1005.46 1005.54 1005.46 1005.38 1005.07 1004.90 1004.73 1004.39 1004.50 1004.54 1004.55 1004.39 1004.19 1004.31 1004.65 1004.58 1005.10 1005.20 1004.92 1004.90 1005.24 1005.49 1005.99 1006.48 1006.81 1007.08 1007.24 1008.19 1008.84 1009.01 1009.39 1009.65 1009.82 1009.86 1010.75
1010.34 1010.54 1010.70 1010.72 1010.56 1009.90 1009.98 1007.71 1006.79 1006.26 1005.79 1005.55 1005.31 1005.19 1005.08 1005.07 1005.19 1005.40 1005.47 1005.41 1005.12 1004.72 1004.56 1004.29 1004.12 1004.28 1004.19 1003.95 1003.93 1003.94 1003.76 1003.71 1003.38 1003.30 1003.80 1004.48 1005.07 1005.38 1005.73 1005.83 1006.61 1007.48 1007.69 1007.90 1008.40 1008.82 1009.10 1009.62 1009.82
1010.38 1010.71 1010.76 1010.76 1010.53 1010.43 1009.34 1008.73 1006.24 1006.12 1005.47 1005.15 1005.07 1004.90 1004.84 1004.81 1005.16 1005.36 1005.54 1005.46 1005.08 1004.88 1004.64 1004.25 1003.62 1003.41 1003.52 1003.85 1003.53 1003.43 1002.99 1002.77 1002.97 1003.02 1003.18 1003.60 1004.09 1004.47 1004.57 1005.16 1005.73 1006.18 1006.75 1007.06 1007.37 1008.09 1008.62 1008.92 1009.22
1010.90 1010.94 1010.93 1011.19 1010.90 1009.93 1009.19 1008.62 1004.79 1004.92 1004.73 1004.88 1004.59 1004.53 1004.53 1004.56 1004.99 1005.30 1005.49 1005.47 1005.05 1004.85 1004.47 1004.01 1003.60 1002.97 1002.56 1002.92 1002.66 1002.69 1002.62 1002.18 1002.36 1002.73 1002.74 1002.74 1003.05 1003.71 1003.90 1004.48 1004.94 1005.33 1005.90 1006.29 1006.78 1007.35 1008.04 1008.28 1008.64
1010.94 1011.11 1010.42 1010.23 1010.14 1009.38 1009.41 1008.32 1004.99 1004.92 1004.70 1004.47 1004.26 1004.10 1004.18 1004.66 1005.10 1005.23 1005.15 1005.11 1004.88 1004.42 1004.15 1003.93 1003.53 1002.95 1002.69 1002.60 1002.18 1001.74 1002.03 1001.95 1001.75 1001.72 1001.78 1002.06 1001.98 1002.56 1002.99 1003.75 1004.11 1004.41 1004.86 1005.45 1006.13 1006.93 1007.32 1007.73 1008.01
1010.75 1011.20 1011.14 1010.43 1009.97 1009.21 1009.14 1006.58 1004.30 1004.81 1004.78 1004.46 1004.44 1004.18 1004.33 1004.40 1004.93 1004.98 1004.84 1004.80 1004.61 1004.25 1003.80 1003.38 1003.12 1002.92 1002.81 1002.47 1001.78 1001.41 1001.55 1001.40 1000.90 1000.83 1001.09 1001.56 1001.45 1001.44 1002.20 1003.21 1003.65 1003.79 1004.18 1004.91 1005.80 1006.28 1006.71 1007.10 1007.54
1011.10 1011.22 1011.61 1011.26 1010.94 1010.09 1007.58 1005.79 1004.82 1004.16 1004.00 1003.83 1003.76 1003.99 1003.97 1004.23 1004.41 1004.61 1004.39 1004.14 1003.84 1003.65 1003.39 1003.05 1002.53 1002.08 1001.99 1001.88 1001.38 1000.93 1000.92 1000.76 1000.05 1000.11 1000.43 1000.65 1001.03 1001.22 1001.96 1002.53 1003.00 1003.16 1003.79 1004.64 1005.28 1005.63 1006.07 1006.67 1007.00
1010.60 1011.04 1011.76 1012.01 1011.04 1009.17 1006.63 1005.39 1003.92 1003.83 1003.57 1003.53 1003.45 1003.47 1003.78 1004.15 1003.90 1003.73 1003.74 1003.44 1003.22 1003.06 1002.77 1002.59 1002.33 1001.75 1001.42 1001.21 1000.87 1000.34 1000.01 999.80 999.44 999.62 999.58 999.80 1000.27 1000.65 1001.43 1001.86 1002.31 1002.86 1003.62 1004.23 1004.76 1005.25 1005.75 1006.20 1006.58
1010.87 1011.05 1011.72 1012.15 1011.80 1010.18 1007.58 1004.32 1004.04 1003.90 1003.91 1003.85 1003.73 1003.70 1003.88 1003.86 1003.72 1003.37 1002.82 1002.55 1002.41 1002.23 1002.01 1001.80 1001.55 1001.16 1000.83 1000.45 1000.06 999.80 999.21 998.94 998.85 998.81 999.08 999.40 999.58 1000.07 1000.66 1001.21 1001.85 1002.54 1003.16 1003.62 1004.29 1004.75 1005.19 1005.79 1006.44
1010.48 1010.89 1011.34 1011.54 1011.24 1010.45 1009.00 1004.22 1004.04 1004.01 1004.11 1004.44 1004.25 1004.15 1003.99 1003.87 1003.35 1003.08 1002.58 1001.86 1001.58 1001.50 1001.27 1000.94 1000.68 1000.39 1000.07 999.78 999.35 998.83 998.68 998.49 998.32 998.31 998.39 998.70 999.05 999.66 1000.10 1000.73 1001.43 1001.98 1002.52 1003.24 1003.84 1004.29 1004.86 1005.56 1006.03
Wind_Speed
4 5 2 0 4 1 2 4 1 4 2 2 5 6 6 9 4 3 4 16 16 24 23 24 22 20 20 19 20 19 18 18 18 18 18 17 17 17 15 14 12 12 12 11 10 11 10 10 10
3 4 2 2 3 5 4 3 8 5 4 12 8 2 4 11 7 13 5 16 21 23 21 23 23 21 21 21 21 20 19 18 18 17 18 17 15 14 14 13 13 13 12 11 11 11 11 11 10
2 3 1 2 3 5 2 4 5 3 10 4 4 3 5 5 4 5 8 18 22 22 22 21 24 21 21 21 22 21 21 20 19 17 17 16 16 14 14 14 13 13 13 13 13 12 12 11 11
2 2 3 3 9 3 4 1 3 9 3 4 3 11 5 7 10 11 10 16 22 21 23 22 23 21 20 20 21 21 21 21 21 20 19 17 16 15 14 13 12 12 13 12 12 11 11 10 11
2 1 3 4 4 2 5 7 7 12 7 7 5 6 9 8 18 9 8 18 24 22 20 21 23 20 19 19 19 20 21 21 21 20 19 19 17 16 14 13 13 12 11 10 11 10 10 10 10
3 1 5 9 5 3 3 5 4 3 3 8 10 13 3 13 18 7 8 18 20 24 21 21 22 20 19 19 19 19 19 20 20 19 19 19 18 17 16 14 13 12 12 12 11 10 9 9 8
5 4 9 12 5 6 3 2 3 0 5 3 11 7 7 20 12 6 5 12 17 20 20 19 20 18 17 17 16 17 17 18 18 18 18 18 17 17 15 14 13 13 12 12 12 11 10 8 7
4 4 9 8 9 11 3 1 3 2 6 7 5 6 10 16 7 4 5 10 13 15 18 19 18 18 17 16 15 14 13 13 13 14 14 15 14 13 13 11 12 13 12 11 11 12 11 10 8
2 7 11 14 12 10 3 0 1 1 8 6 3 13 10 10 2 1 5 8 10 12 14 16 18 17 16 16 14 12 12 10 10 10 10 9 9 12 13 11 11 12 12 11 10 11 11 10 9
7 8 11 5 14 12 14 9 6 7 8 11 14 9 9 13 3 4 7 10 13 16 16 16 17 17 16 12 14 14 13 11 10 10 11 9 8 8 9 9 10 10 10 10 10 11 10 10 7
4 10 4 5 9 6 13 12 5 8 14 9 14 18 18 15 8 7 10 12 14 15 11 15 14 15 16 13 10 8 7 8 8 11 10 9 7 7 7 6 7 8 11 8 10 10 9 10 6
5 1 4 7 4 5 8 7 8 11 15 10 15 18 18 13 10 10 8 9 13 17 15 15 15 14 14 10 10 10 9 9 9 11 13 9 7 8 8 7 8 8 7 10 8 7 8 9 9
4 2 3 6 6 6 8 15 14 16 14 14 15 14 12 11 9 7 5 6 12 15 15 16 14 13 12 11 9 9 11 10 11 11 13 11 10 9 9 8 8 8 8 8 8 8 8 9 10
2 3 7 7 8 7 10 18 6 7 10 14 17 19 14 13 13 7 3 6 10 14 15 18 15 14 12 12 12 8 8 10 9 9 11 14 10 9 9 9 9 8 8 8 8 8 7 8 8
2 4 6 10 5 7 7 17 13 12 10 13 10 10 8 8 9 8 6 6 9 12 12 16 15 17 15 14 13 10 8 8 9 10 12 13 12 9 10 9 8 8 8 9 7 8 8 8 8
1 1 3 3 0 4 6 7 4 11 10 7 11 10 8 10 10 9 8 7 7 8 10 12 12 16 15 13 11 9 8 7 9 9 8 13 12 11 10 8 8 7 8 8 7 7 8 8 8
2 1 1 2 4 6 2 5 8 10 7 12 11 9 10 9 10 9 8 8 8 7 8 8 12 14 13 11 11 10 9 8 10 9 9 9 10 12 10 9 9 9 8 8 7 7 8 7 7
2 2 1 4 3 8 8 11 13 13 9 9 10 9 8 9 11 10 10 9 8 6 7 7 9 12 8 7 7 9 8 7 7 8 9 10 9 10 7 8 8 8 8 8 7 8 7 7 5
3 3 2 3 2 10 13 17 16 15 13 11 9 9 7 7 9 10 13 11 8 5 6 4 9 10 9 9 10 10 12 11 9 9 10 10 10 11 8 7 9 8 10 9 10 8 9 6 5
5 4 4 5 6 9 15 21 19 16 15 15 12 9 8 5 7 11 12 11 10 8 7 6 5 7 9 8 7 9 8 10 11 10 11 12 13 13 12 12 8 10 8 12 11 10 5 5 6
5 5 3 5 4 12 10 15 4 7 9 9 10 11 9 10 8 9 9 11 11 12 11 8 7 6 8 11 9 7 6 4 6 9 10 13 16 16 16 14 10 11 11 10 11 11 10 7 5
7 6 4 7 9 8 5 7 10 8 9 10 14 13 12 11 10 7 9 10 9 11 11 11 8 7 5 9 11 15 13 12 11 11 10 10 16 17 16 13 13 13 10 10 10 9 9 9 8
3 2 5 8 12 8 7 8 4 9 9 9 9 11 14 16 11 6 8 10 12 11 11 11 12 11 8 5 10 11 13 10 10 9 10 11 10 14 14 15 16 14 10 10 10 10 11 9 8
2 3 7 2 3 6 1 5 6 5 5 4 12 14 13 9 7 6 6 9 11 11 11 10 11 12 10 8 6 11 13 12 11 12 10 9 8 9 13 14 13 12 10 10 10 10 12 11 11
2 4 6 4 4 4 5 10 13 7 11 15 13 11 10 6 7 7 8 11 12 14 13 10 10 14 13 13 10 9 13 14 14 13 9 10 8 8 10 13 13 11 11 9 9 11 10 12 11
4 4 5 6 5 8 10 13 2 2 5 11 8 9 8 7 5 8 11 13 12 13 14 14 12 13 12 14 14 9 12 11 10 11 10 10 9 10 8 12 12 11 10 9 10 9 9 11 10
4 7 5 11 11 10 8 12 17 11 8 9 11 12 14 11 8 10 13 13 14 14 15 14 16 15 13 14 13 12 12 14 12 14 11 11 10 8 9 12 11 9 9 11 11 9 10 10 10
10 6 4 3 6 7 8 17 14 13 13 11 13 12 10 8 14 13 14 16 15 16 15 15 15 16 15 14 14 13 13 14 14 12 13 12 11 11 10 11 10 10 10 12 12 9 10 10 7
6 9 3 4 5 6 10 7 5 11 7 11 11 13 15 17 16 19 20 18 17 17 16 15 14 15 15 15 15 15 14 14 13 13 13 13 10 11 11 12 11 12 12 12 12 11 10 10 9
9 10 10 6 7 8 10 17 14 15 13 9 13 16 19 20 21 20 21 21 18 15 15 14 13 14 14 16 16 16 14 13 13 15 14 12 13 12 12 12 13 13 13 13 13 12 10 11 11
Wind_Direction
340 60 354 339 219 274 223 230 232 200 212 272 303 293 292 298 183 229 44 175 153 152 159 167 172 173 165 158 152 150 146 144 143 145 146 146 145 145 144 144 147 146 147 141 133 125 124 121 120
336 97 88 104 229 216 207 237 223 225 307 318 303 273 243 263 245 266 257 165 164 155 155 169 172 176 169 165 158 154 150 151 150 151 149 148 144 145 144 148 152 153 150 145 141 133 130 129 128
141 77 230 247 188 220 228 220 252 198 300 252 291 263 277 254 218 304 339 162 158 162 159 167 174 177 175 170 163 161 157 157 154 154 150 151 149 152 154 156 158 162 159 156 151 147 143 139 132
153 128 113 233 240 227 237 354 202 298 321 191 306 285 269 45 331 307 306 171 158 165 164 160 171 176 179 177 169 166 162 161 158 159 157 156 156 158 160 163 164 168 165 165 157 153 148 145 139
48 109 200 252 246 259 249 278 269 289 299 283 342 303 301 335 324 311 193 174 166 163 167 164 167 174 179 184 176 172 168 166 164 163 161 161 163 163 165 170 169 174 171 171 164 160 155 155 154
155 201 211 241 235 222 240 255 284 284 278 300 333 320 292 338 343 343 177 176 173 159 167 169 167 173 179 185 182 180 177 169 167 168 166 167 167 167 171 174 176 180 180 176 173 169 169 164 165
197 196 227 246 236 253 218 167 237 303 309 312 334 308 343 351 351 15 146 173 171 164 164 169 174 176 179 181 188 183 185 175 171 172 171 170 171 172 174 176 182 184 187 184 176 176 174 175 185
175 230 220 231 234 253 184 243 281 214 303 328 334 2 338 341 341 58 131 159 173 172 167 171 174 181 185 186 186 185 187 180 172 173 177 171 173 174 177 178 191 190 195 192 182 185 177 181 198
175 220 231 226 218 229 187 237 207 13 292 300 301 309 336 346 280 131 151 164 175 178 174 176 174 180 186 191 187 181 182 177 173 176 179 166 187 184 185 196 189 199 198 200 195 198 187 187 200
224 226 218 227 234 235 231 255 290 291 289 286 293 295 322 334 315 293 215 204 199 195 187 185 182 183 183 188 192 188 188 188 193 191 189 196 198 203 199 196 204 208 210 212 206 208 196 199 216
174 252 205 165 254 268 266 270 230 286 276 286 304 313 320 320 301 296 252 220 211 206 197 203 194 190 190 191 187 190 186 183 187 197 191 195 200 211 203 205 200 210 209 224 210 213 221 220 219
195 230 290 248 286 307 273 307 242 231 267 292 290 291 292 295 308 305 303 245 200 218 206 206 202 199 196 196 197 192 191 186 191 191 193 188 195 211 209 207 209 213 212 218 219 222 228 228 224
205 175 292 295 295 289 289 269 284 283 275 282 291 291 283 289 303 309 290 287 250 212 202 204 204 199 194 200 198 202 203 199 196 190 198 193 194 210 212 214 211 217 215 220 220 227 226 229 233
169 235 276 279 262 252 260 266 273 252 325 307 297 288 284 294 299 301 287 260 239 234 216 189 190 207 195 202 212 217 205 202 201 203 207 203 201 211 207 218 223 223 222 221 230 231 232 237 239
298 277 274 243 252 245 263 262 258 288 245 258 299 302 319 324 316 326 324 258 261 235 231 205 194 184 197 195 206 219 222 219 217 215 204 213 209 194 223 226 225 228 227 221 225 234 235 240 236
193 170 242 101 241 56 218 245 260 21 344 330 320 304 318 331 327 331 341 335 307 265 221 217 198 194 200 202 201 206 207 210 225 231 226 208 201 196 199 226 228 235 242 229 222 225 238 243 238
39 132 352 311 63 24 358 297 289 336 324 310 305 298 306 311 318 326 331 343 332 288 256 206 206 215 199 201 199 205 197 202 225 213 221 228 236 222 183 205 223 186 233 232 227 225 233 239 243
134 144 200 312 347 339 304 278 286 295 285 274 285 286 283 293 302 313 322 335 337 330 281 238 201 215 214 215 202 209 217 222 219 229 222 200 217 207 216 228 187 196 218 224 222 226 219 243 247
175 186 249 282 266 320 301 293 287 283 282 273 261 269 266 273 293 319 321 329 342 353 358 284 225 216 190 200 214 220 218 220 221 224 218 201 195 185 222 226 193 199 217 224 214 206 220 224 222
195 204 228 278 277 308 301 292 285 268 260 255 249 239 249 263 290 310 316 317 332 328 342 345 293 241 219 212 215 226 216 218 219 214 211 200 196 193 208 217 197 204 212 219 208 203 203 225 196
219 240 221 280 286 268 298 284 246 277 242 239 236 246 259 247 263 284 297 311 319 324 330 328 316 288 251 227 222 216 229 239 202 210 214 209 197 201 205 208 206 200 209 212 204 202 206 221 203
270 214 246 288 314 312 346 288 238 262 246 252 263 263 255 249 260 255 281 296 313 316 317 316 315 300 240 237 231 221 223 228 227 225 218 205 204 205 203 203 202 206 205 210 205 199 212 215 214
280 215 298 298 293 295 261 256 160 182 262 255 261 267 274 282 280 258 282 301 311 314 313 310 313 304 300 236 225 231 226 230 242 241 236 215 206 210 205 207 202 201 208 207 201 193 206 208 219
99 275 281 231 251 254 290 257 283 234 182 215 300 284 281 278 266 275 308 309 304 312 314 312 310 303 308 301 262 234 242 225 228 230 230 223 213 206 205 208 206 203 202 201 201 203 207 206 216
152 293 297 251 209 288 175 268 257 245 267 293 288 287 294 267 283 302 325 326 314 316 316 310 298 297 304 295 284 259 244 237 231 238 242 241 220 214 212 206 201 198 198 196 197 201 207 207 212
221 246 269 287 263 295 238 256 223 17 278 280 275 282 289 283 302 295 306 315 309 303 306 303 290 279 287 287 280 270 251 244 231 229 227 235 233 228 205 199 202 193 183 187 193 202 209 204 209
160 227 336 264 279 273 242 260 278 275 300 285 275 258 274 288 301 298 307 311 305 301 295 291 289 281 276 274 274 267 254 241 235 226 215 221 223 220 193 194 197 183 182 188 190 200 195 196 204
225 141 189 192 264 263 262 271 261 294 305 290 284 279 287 290 296 294 297 307 301 294 288 284 273 272 276 273 266 260 252 239 232 231 225 219 206 195 193 190 187 179 186 187 183 185 186 193 196
182 217 211 276 242 268 296 269 197 296 320 309 297 304 312 312 309 306 303 302 295 292 284 282 272 267 270 269 261 254 251 243 234 228 228 222 200 190 190 191 183 185 185 176 177 179 178 192 184
256 248 226 228 204 234 282 274 285 278 304 330 309 306 300 300 298 301 299 298 296 289 287 285 282 277 272 269 266 254 246 235 222 220 219 207 201 189 190 184 186 183 175 171 177 178 183 180 182